Location: Carabito
(9.8355°N, 67.9249°W)
Time: 12:33:08
(UTC+00:00)

NOAA 12 - Pass Details

Date: 23 May 2024
Orbit: 794 x 813 km, 98.6° (Epoch: 24 June)

Event Time Altitude Azimuth Distance (km) Brightness Sun altitude
Rises 09:36:45 0° 8° (N) 3,295 7.7 -8.4°
Reaches altitude 10° 09:39:05 10° 7° (N) 2,368 7.0 -7.9°
Maximum altitude 09:44:18 72° 283° (WNW) 841 4.1 -6.7°
Drops below altitude 10° 09:49:33 10° 199° (SSW) 2,383 6.2 -5.5°
Sets 09:51:53 0° 197° (SSW) 3,316 6.9 -4.9°
